STARLINK-30790, 58127

Orbit data source: Space-Track

STARLINK-30790, 58127 is a payload satellite owned by SpaceX/Seattle (US) in LEO that was launched on Sun, 22 Oct 2023 UTC via an FALCON 9 launch vehicle from the Air Force Eastern Test Range (AFETR). Payload-class satellites include a variety of spacecraft equipped with specific instruments for various scientific and technological missions. These include communications satellites like Starlink; space stations such as the ISS; scientific satellites like the Hubble; Earth observation satellites from companies like Planet Labs, Umbra, and HawkEye 360; GPS; miniature CubeSats for education and research; and military/defense satellites.

Loading next visibility...
Identifier
58127, 2023-162K
Orbit
LEO
Country
Flag of USUS
Related business
Manufacturer
SpaceX/Seattle
Mission
Operational Commercial Communications
Bus & Motor
STARLINK V2M, Unknown motor
Mass
730 kg wet, ~700 kg dry
Launch date (UTC)
2023-10-22 (2 years ago)
Launch vehicle
FALCON 9
Launch site
Air Force Eastern Test Range (AFETR)
Object type
Payload
Rocket body
Debris
Shape & HBR
Box + 2 Pan, 17.7 m
Radar Cross Section
33.884 m², Large (>1 m²)

Expand to show TLE details & history
Last TLE update: 1 day ago

TLE from 1 day ago
0 STARLINK-30790
1 58127U 23162K   25348.37705509  .00032481  00000-0  22238-2 0  9992
2 58127  43.0018 236.0734 0003909 220.2812 139.7742 15.05521860119472
Epoch: 2025-12-14T09:02Z
TLE epoch observation values (Epoch: 2025-12-14T09:02:57.559Z)
Latitude
-0.00004°
Longitude
17.04267°
Altitude
551.75 km
Speed
7.587 km/s
True Right ascension
15h 44m 17s
True Declination
0° 00' 00"
Sunlit
Object was in daylight at epoch
Visualization orbit readout
Latitude
Unknown
Longitude
Unknown
Altitude
Unknown
Speed
Unknown
Apparent Right ascension
Unknown
Apparent Declination
Unknown
Sunlit
N/A
Visualization observer readout
Local Sidereal Time
13:26:15
Azimuth
Unknown
Elevation
Unknown
Doppler factor
Unknown
Orbital elements
Apogee altitude
554.539 km
Perigee altitude
549.121 km
Semi-major axis
6,929.967 km
Eccentricity
0.00039
Inclination
43.0018°
RAAN
236.0734°
Arg. of periapsis
220.2812°
True anomaly
139.80312°
Mean anomaly
139.7742°
Eccentric anomaly
139.78866°
Mean motion
3.76224 °/min
Orbital period
95.69 mins
BSTAR
0.0022238
Loading maneuver chart data...
Computing Atmospheric mass density...
Loading historical data...
Loading historical data...
Loading historical data...
Loading historical data...
Loading historical data...
Loading historical data...
Loading historical data...

Documentation

Showing up to 5 results
|